Location: Trois-Rivi�res
(46.3500°N, 72.5500°W)
Time: 09:01:04
(UTC-04:00)

Cosmos 1544 - Visible Passes

Search period start: 26 May 2017 00:00
Search period end: 05 June 2017 00:00
Orbit: 477 x 499 km, 82.5° (Epoch: 25 May)

Date Brightness Start Highest point End Pass type
(mag) Time Alt. Az. Time Alt. Az. Time Alt. Az.
26 May 3.2 22:57:13 10° N 23:00:49 59° E 23:01:29 49° SE visible
27 May 3.8 22:33:51 10° N 22:37:15 38° ENE 22:38:17 30° ESE visible
28 May 5.4 00:10:00 10° NW 00:12:05 15° W 00:12:44 14° W visible
28 May 4.5 22:10:36 10° NNE 22:13:40 25° ENE 22:15:06 20° ESE visible
28 May 4.9 23:45:52 10° NW 23:48:42 22° W 23:49:33 20° WSW visible
29 May 5.0 21:47:32 10° NNE 21:50:02 17° ENE 21:51:55 13° ESE visible
29 May 4.4 23:22:01 10° NNW 23:25:18 33° W 23:26:23 27° SW visible
30 May 5.3 21:24:53 10° NE 21:26:22 12° ENE 21:27:50 10° E visible
30 May 3.6 22:58:19 10° NNW 23:01:52 51° W 23:03:13 32° SSW visible
31 May 3.0 22:34:43 10° N 22:38:22 82° W 22:40:04 30° S visible
01 Jun 3.1 22:11:14 10° N 22:14:51 62° E 22:16:56 23° SSE visible
02 Jun 3.7 21:47:50 10° N 21:51:17 39° ENE 21:53:49 16° SE visible
02 Jun 5.7 23:24:06 10° NW 23:26:05 14° W 23:28:06 10° WSW visible
03 Jun 4.3 21:24:34 10° NNE 21:27:41 26° ENE 21:30:42 11° SE visible
03 Jun 5.2 22:59:55 10° NW 23:02:43 21° W 23:05:10 12° SW visible
04 Jun 4.6 22:36:02 10° NNW 22:39:17 31° W 22:42:05 13° SSW visible
